TimeEDT,TemperatureF,Dew PointF,Humidity,Sea Level PressureIn,VisibilityMPH,Wind Direction,Wind SpeedMPH,Gust SpeedMPH,PrecipitationIn,Events,Conditions,WindDirDegrees,DateUTC
12:03 AM,48.2,46.4,93,29.91,1.5,NNE,4.6,-,N/A,,Partly Cloudy,30,2012-10-02 04:03:00
12:13 AM,50.0,48.2,94,29.91,3.0,Calm,Calm,-,N/A,,Scattered Clouds,0,2012-10-02 04:13:00
12:20 AM,48.2,46.4,93,29.92,1.5,Calm,Calm,-,N/A,,Mostly Cloudy,0,2012-10-02 04:20:00
12:28 AM,48.2,48.2,100,29.92,0.5,Calm,Calm,-,N/A,Fog,Fog,0,2012-10-02 04:28:00
12:53 AM,50.0,48.0,93,29.92,0.2,Calm,Calm,-,N/A,Fog,Fog,0,2012-10-02 04:53:00
1:01 AM,48.2,48.2,100,29.93,0.2,Calm,Calm,-,N/A,Fog,Fog,0,2012-10-02 05:01:00
1:16 AM,50.0,48.2,94,29.93,0.5,Calm,Calm,-,N/A,Fog,Fog,0,2012-10-02 05:16:00
1:29 AM,50.0,48.2,94,29.93,0.2,Calm,Calm,-,N/A,Fog,Fog,0,2012-10-02 05:29:00
1:53 AM,50.0,48.0,93,29.93,0.2,Calm,Calm,-,N/A,Fog,Fog,0,2012-10-02 05:53:00
2:31 AM,50.0,48.2,94,29.93,0.5,Calm,Calm,-,N/A,Fog,Fog,0,2012-10-02 06:31:00
2:41 AM,50.0,48.2,94,29.93,0.2,Calm,Calm,-,N/A,Fog,Fog,0,2012-10-02 06:41:00
2:53 AM,50.0,48.0,93,29.93,0.2,Calm,Calm,-,N/A,Fog,Fog,0,2012-10-02 06:53:00
3:08 AM,48.2,46.4,93,29.93,0.8,Calm,Calm,-,N/A,,Mist,0,2012-10-02 07:08:00
3:14 AM,48.2,46.4,93,29.93,2.0,Calm,Calm,-,N/A,,Overcast,0,2012-10-02 07:14:00
3:19 AM,48.2,46.4,93,29.93,0.8,Calm,Calm,-,N/A,,Mist,0,2012-10-02 07:19:00
3:28 AM,48.2,46.4,93,29.93,0.2,Calm,Calm,-,N/A,Fog,Fog,0,2012-10-02 07:28:00
3:31 AM,48.2,46.4,93,29.94,0.5,Calm,Calm,-,N/A,Fog,Fog,0,2012-10-02 07:31:00
3:37 AM,48.2,46.4,93,29.94,2.0,South,4.6,-,N/A,,Overcast,180,2012-10-02 07:37:00
3:45 AM,48.2,46.4,93,29.95,10.0,South,3.5,-,N/A,,Mostly Cloudy,170,2012-10-02 07:45:00
3:53 AM,48.9,46.9,93,29.94,10.0,Calm,Calm,-,N/A,,Mostly Cloudy,0,2012-10-02 07:53:00
4:29 AM,48.2,46.4,93,29.95,1.5,Calm,Calm,-,N/A,,Overcast,0,2012-10-02 08:29:00
4:36 AM,48.2,46.4,93,29.95,0.8,Calm,Calm,-,N/A,,Mist,0,2012-10-02 08:36:00
4:51 AM,48.2,46.4,93,29.96,0.2,Calm,Calm,-,N/A,Fog,Fog,0,2012-10-02 08:51:00
4:53 AM,48.9,46.9,93,29.95,0.2,Calm,Calm,-,N/A,Fog,Fog,0,2012-10-02 08:53:00
5:15 AM,48.2,46.4,93,29.97,0.5,Calm,Calm,-,N/A,Fog,Fog,0,2012-10-02 09:15:00
5:26 AM,50.0,48.2,94,29.97,0.2,Calm,Calm,-,N/A,Fog,Fog,0,2012-10-02 09:26:00
5:53 AM,48.9,46.9,93,29.96,0.2,Calm,Calm,-,N/A,Fog,Fog,0,2012-10-02 09:53:00
6:08 AM,48.2,46.4,93,29.97,0.8,Calm,Calm,-,N/A,,Mist,0,2012-10-02 10:08:00
6:23 AM,48.2,46.4,93,29.97,0.8,Calm,Calm,-,N/A,,Overcast,0,2012-10-02 10:23:00
6:37 AM,48.2,46.4,93,29.98,0.5,Calm,Calm,-,N/A,Fog,Fog,0,2012-10-02 10:37:00
6:39 AM,48.2,46.4,93,29.98,0.2,Calm,Calm,-,N/A,Fog,Fog,0,2012-10-02 10:39:00
6:53 AM,48.9,46.9,93,29.97,0.2,Calm,Calm,-,N/A,Fog,Fog,0,2012-10-02 10:53:00
7:07 AM,48.2,48.2,100,29.98,0.2,Calm,Calm,-,N/A,Fog,Fog,0,2012-10-02 11:07:00
7:20 AM,50.0,48.2,94,30.00,0.2,Calm,Calm,-,N/A,Fog,Fog,0,2012-10-02 11:20:00
7:28 AM,50.0,48.2,94,30.01,0.2,South,3.5,-,N/A,Fog,Fog,170,2012-10-02 11:28:00
7:53 AM,50.0,48.9,96,30.01,0.2,Calm,Calm,-,N/A,Fog,Fog,0,2012-10-02 11:53:00
8:38 AM,51.8,50.0,94,30.02,0.8,Calm,Calm,-,0.01,,Mist,0,2012-10-02 12:38:00
8:53 AM,52.0,50.0,93,30.03,0.2,Calm,Calm,-,0.01,Fog,Fog,0,2012-10-02 12:53:00
9:10 AM,51.8,50.0,94,30.03,0.8,Calm,Calm,-,N/A,,Mist,0,2012-10-02 13:10:00
9:20 AM,51.8,51.8,100,30.01,0.8,Calm,Calm,-,N/A,,Overcast,0,2012-10-02 13:20:00
9:29 AM,51.8,51.8,100,30.02,1.5,Calm,Calm,-,N/A,,Overcast,0,2012-10-02 13:29:00
9:37 AM,51.8,51.8,100,30.02,2.5,Calm,Calm,-,N/A,,Overcast,0,2012-10-02 13:37:00
9:48 AM,53.6,51.8,94,30.03,4.0,Calm,Calm,-,N/A,,Overcast,0,2012-10-02 13:48:00
9:53 AM,53.1,51.1,93,30.03,4.0,Calm,Calm,-,N/A,,Overcast,0,2012-10-02 13:53:00
10:04 AM,53.6,51.8,94,30.03,3.0,Calm,Calm,-,N/A,,Mostly Cloudy,0,2012-10-02 14:04:00
10:41 AM,57.2,51.8,82,30.02,6.0,Calm,Calm,-,N/A,,Haze,0,2012-10-02 14:41:00
10:53 AM,57.0,52.0,83,30.02,6.0,Calm,Calm,-,N/A,,Haze,0,2012-10-02 14:53:00
11:53 AM,62.1,54.0,75,30.00,10.0,Calm,Calm,-,N/A,,Mostly Cloudy,0,2012-10-02 15:53:00
12:53 PM,64.9,55.0,70,29.99,10.0,Calm,Calm,-,N/A,,Overcast,0,2012-10-02 16:53:00
1:53 PM,66.0,53.1,63,29.99,10.0,South,8.1,-,N/A,,Overcast,190,2012-10-02 17:53:00
2:53 PM,64.9,52.0,63,29.99,10.0,SSW,5.8,-,N/A,,Overcast,210,2012-10-02 18:53:00
3:53 PM,66.0,53.1,63,29.98,10.0,SSW,4.6,-,N/A,,Overcast,200,2012-10-02 19:53:00
4:53 PM,64.0,55.0,73,29.99,10.0,South,5.8,-,N/A,,Overcast,170,2012-10-02 20:53:00
5:39 PM,62.6,55.4,77,30.00,10.0,South,6.9,-,N/A,,Overcast,190,2012-10-02 21:39:00
5:53 PM,63.0,54.0,72,29.99,10.0,SSW,8.1,-,N/A,,Overcast,200,2012-10-02 21:53:00
6:53 PM,62.1,54.0,75,30.01,10.0,South,6.9,-,N/A,,Overcast,180,2012-10-02 22:53:00
7:53 PM,61.0,55.0,81,30.02,10.0,South,6.9,-,N/A,,Overcast,190,2012-10-02 23:53:00
8:25 PM,60.8,55.4,82,30.03,10.0,South,3.5,-,N/A,,Overcast,190,2012-10-03 00:25:00
9:12 PM,60.8,55.4,82,30.04,7.0,Calm,Calm,-,0.00,Rain,Light Rain,0,2012-10-03 01:12:00
9:24 PM,59.0,55.4,88,30.05,4.0,Calm,Calm,-,0.01,Rain,Light Rain,0,2012-10-03 01:24:00
9:46 PM,59.0,57.2,94,30.05,5.0,Calm,Calm,-,0.02,Rain,Light Rain,0,2012-10-03 01:46:00
9:53 PM,59.0,57.0,93,30.04,8.0,Calm,Calm,-,0.02,Rain,Light Rain,0,2012-10-03 01:53:00
10:05 PM,59.0,57.2,94,30.05,6.0,Calm,Calm,-,0.00,,Overcast,0,2012-10-03 02:05:00
10:22 PM,59.0,57.2,94,30.05,2.5,Calm,Calm,-,0.02,Rain,Light Rain,0,2012-10-03 02:22:00
10:34 PM,59.0,57.2,94,30.05,4.0,Calm,Calm,-,0.02,Rain,Light Rain,0,2012-10-03 02:34:00
10:53 PM,59.0,57.0,93,30.04,6.0,Calm,Calm,-,0.02,,Overcast,0,2012-10-03 02:53:00
11:06 PM,59.0,57.2,94,30.06,4.0,Calm,Calm,-,N/A,,Overcast,0,2012-10-03 03:06:00
11:53 PM,59.0,57.0,93,30.04,5.0,Calm,Calm,-,N/A,,Overcast,0,2012-10-03 03:53:00